sat.trackr.live / text

‹ back to catalog

STARLINK-2231

NORAD 48577 · 2021-041AA

PAYLOAD ACTIVE UNKNOWN

§ Identity

Operator
Country
US
Launch date
2021-05-15
Launch site
AFETR
Launch vehicle
Mass (kg)
RCS (m²)

Purposes: comms

External: N2YO · Heavens-Above · Gunter

§ Orbital elements

Epoch: 2026-09-19T14:26:56.261184Z

Period
94.01 min
Inclination
53.1595°
Eccentricity
0.0001252
Mean motion
15.31710965 rev/d
Perigee alt
469.8 km
Apogee alt
471.6 km
Semi-major
6,848.8 km
B*
5.0462e-5
RAAN
304.4781°
Arg perigee
82.1260°
Mean anomaly
277.9883°
Rev number
29,498

§ Raw data

STARLINK-22311 48577U 21041AA  26262.60204006  .00001202  00000+0  50462-4 0  99902 48577  53.1595 304.4781 0001252  82.1260 277.9883 15.31710965294981

JSON: /api/v1/satellites/48577 · /tle

For live sub-satellite position, see the globe view (requires WebGL).

§ Visibility from observer

Set your observer location to see the next 7 days of passes ≥ 10°. The values pass through the URL so the page stays shareable.

No JS? Fill the form by hand. The geolocation button needs JavaScript.